Home   Weather   Jefferson City   Past weeks

Flag for USA Past Weather in Jefferson City, Missouri, USA — Yesterday and Last 2 Weeks

Now
41 °F

Mostly cloudy.


Feels Like: 36 °F
Forecast: 35 / 45 °F
Wind: 8 mph from Northwest

Location: Jefferson City Memorial Airport

Current Time: Jan 23, 2017 at 2:31:52 am

Latest Report: Jan 23, 2017 at 12:53 am


Visibility: 10 mi

Pressure: 29.80 "Hg

Humidity: 86%

Dew Point: 37 °F

Location of Jefferson CityLocation

Past Weather in Jefferson City — Graph

°F

Jefferson City Temperature Yesterday

Maximum temperature yesterday: 52 °F (at 1:53 am)
Minimum temperature yesterday: 40 °F (at 6:53 pm)
Average temperature yesterday: 46 °F

High & Low Weather Summary for the Past Weeks

 TemperatureHumidityPressure
High73 °F (Jan 11, 2:53 pm)100% (Jan 15, 11:53 pm)30.74 "Hg (Jan 15, 11:53 pm)
Low6 °F (Jan 8, 4:53 am)35% (Jan 21, 2:53 pm)29.44 "Hg (Jan 22, 1:53 am)
Average40 °F80%30.02 "Hg
* Reported Jan 8 12:53 am — Jan 23 12:53 am, Jefferson City, Weather by CustomWeather, © 2017

Note: Actual official high and low records may vary slightly from our data, if they occured in-between our weather recording intervals... More about our weather records

Advertising

Jefferson City Weather History for the Previous 24 Hours

Scroll right to see more
 ConditionsComfort  
Time TempWeatherWind HumidityBarometerVisibility
12:53 am
Mon, Jan 23
41 °FMostly cloudy.8 mph86%29.80 "Hg10 mi
11:53 pm
Sun, Jan 22
41 °FOvercast.6 mph80%29.80 "Hg10 mi
10:53 pm41 °FLight rain. Overcast.10 mph80%29.80 "Hg10 mi
9:53 pm42 °FOvercast.8 mph76%29.78 "Hg10 mi
8:53 pm41 °FOvercast.7 mph82%29.76 "Hg10 mi
7:53 pm41 °FOvercast.7 mph82%29.73 "Hg10 mi
7:29 pm41 °FOvercast.9 mph82%29.75 "Hg10 mi
6:53 pm40 °FMostly cloudy.10 mph86%29.69 "Hg10 mi
5:53 pm42 °FOvercast.12 mph85%29.66 "Hg10 mi
5:13 pm43 °FMostly cloudy.14 mph86%29.66 "Hg10 mi
4:53 pm45 °FOvercast.13 mph86%29.63 "Hg10 mi
3:53 pm47 °FOvercast.9 mph83%29.60 "Hg10 mi
2:53 pm47 °FLight rain. Overcast.10 mph83%29.57 "Hg10 mi
1:53 pm47 °FLight rain. Mostly cloudy.12 mph80%29.55 "Hg8 mi
12:53 pm47 °FLight rain. Overcast.12 mph77%29.55 "Hg8 mi
11:53 am49 °FOvercast.12 mph64%29.54 "Hg10 mi
10:53 am48 °FOvercast.15 mph71%29.55 "Hg10 mi
9:53 am46 °FOvercast.9 mph79%29.56 "Hg10 mi
8:53 am46 °FMostly cloudy.10 mph86%29.54 "Hg8 mi
7:53 am46 °FMostly cloudy.10 mph89%29.53 "Hg9 mi
6:53 am47 °FLight rain. Mostly cloudy.9 mph86%29.52 "Hg10 mi
5:53 am49 °FOvercast.6 mph80%29.49 "Hg10 mi
4:53 am49 °FOvercast.5 mph86%29.48 "Hg10 mi
3:53 am49 °FOvercast.3 mph86%29.46 "Hg10 mi
2:53 am50 °FOvercast.9 mph83%29.45 "Hg10 mi
Weather by CustomWeather, © 2017

See weather overviewHow to use our weather pages